HXMT (HUIYAN)

Last updated on Wed Sep 17 2025 00:02:15 GMT+0000 (Coordinated Universal Time)

1 42758U 17034A 25259.46423575 .00004736 00000+0 25946-3 0 9998 2 42758 43.0137 263.4094 0034388 216.9536 142.8942 15.14768545456092
UTC large
Height (km)
Speed (km/s)
/
Latitude / Longitude
Inclination (degrees)
Orbital Period (minutes)
Azimuth
Elevation
Range (km)
Doppler Factor

Next 0 passes for location: London (51.5072 / 0.1276)

Sorry there are no passes over London.